Fort Atkinson, Wisconsin, United States (53538)
Lat: 42.93N, Lon: 88.84W
Wx Zone: WIZ064
Local Info
Past Weather Observations for Today

NOTE: This archive is for the closest National Weather Service station to Fort Atkinson. Information may differ from the station used for current weather conditions.

Click here for Long-term Archive

Time Weather Temperature Dewpoint Humidity Pressure Winds Precip Visibility
15:55
Clear
39°F / 4°C 12°F / -11°C 33% 30.24 in
(1024 mb)
SW 11.5 mph
(SW 19 kph)
- 10SM
15:35
Clear
39°F / 4°C 10°F / -12°C 30% 30.24 in
(1024 mb)
SSE 6.9 mph
(SSE 11 kph)
- 10SM
15:15
Clear
39°F / 4°C 9°F / -13°C 28% 30.24 in
(1024 mb)
SW 8.1 mph
(SW 13 kph)
- 10SM
14:55
Clear
39°F / 4°C 10°F / -12°C 30% 30.27 in
(1025 mb)
SSE 6.9 mph
(SSE 11 kph)
- 10SM
14:35
Clear
39°F / 4°C 10°F / -12°C 30% 30.27 in
(1025 mb)
SW 5.8 mph
(SW 9 kph)
- 10SM
14:15
Clear
39°F / 4°C 12°F / -11°C 33% 30.27 in
(1025 mb)
SSW 6.9 mph
(SSW 11 kph)
- 10SM
13:55
Clear
37°F / 3°C 10°F / -12°C 33% 30.27 in
(1025 mb)
SW 5.8 mph
(SW 9 kph)
- 10SM
13:35
Clear
37°F / 3°C 10°F / -12°C 33% 30.27 in
(1025 mb)
SW 8.1 mph
(SW 13 kph)
- 10SM
13:15
Clear
37°F / 3°C 10°F / -12°C 33% 30.27 in
(1025 mb)
SW 5.8 mph
(SW 9 kph)
- 10SM
12:55
Clear
37°F / 3°C 10°F / -12°C 33% 30.3 in
(1026 mb)
SW 8.1 mph
(SW 13 kph)
- 10SM
12:35
Clear
36°F / 2°C 12°F / -11°C 38% 30.3 in
(1026 mb)
SW 9.2 mph
(SW 15 kph)
- 10SM
12:15
Clear
36°F / 2°C 12°F / -11°C 38% 30.3 in
(1026 mb)
Calm - 10SM
11:55
Clear
36°F / 2°C 10°F / -12°C 35% 30.3 in
(1026 mb)
SW 4.6 mph
(SW 7 kph)
- 10SM
11:35
Clear
34°F / 1°C 12°F / -11°C 41% 30.3 in
(1026 mb)
SSW 4.6 mph
(SSW 7 kph)
- 10SM
11:15
Clear
34°F / 1°C 12°F / -11°C 41% 30.3 in
(1026 mb)
S 6.9 mph
(S 11 kph)
- 10SM
10:55
Clear
32°F / 0°C 10°F / -12°C 40% 30.3 in
(1026 mb)
Calm - 10SM
10:35
Clear
32°F / 0°C 12°F / -11°C 44% 30.33 in
(1027 mb)
SSE 3.5 mph
(SSE 6 kph)
- 10SM
10:15
Clear
32°F / 0°C 14°F / -10°C 47% 30.33 in
(1027 mb)
SSE 3.5 mph
(SSE 6 kph)
- 10SM
09:55
Clear
30°F / -1°C 12°F / -11°C 47% 30.33 in
(1027 mb)
Calm - 10SM
09:35
Clear
30°F / -1°C 14°F / -10°C 51% 30.33 in
(1027 mb)
Calm - 10SM
09:15
Clear
28°F / -2°C 14°F / -10°C 55% 30.33 in
(1027 mb)
Calm - 10SM
08:55
Clear
28°F / -2°C 14°F / -10°C 55% 30.33 in
(1027 mb)
Calm - 10SM
08:35
Clear
27°F / -3°C 16°F / -9°C 64% 30.33 in
(1027 mb)
SE 3.5 mph
(SE 6 kph)
- 10SM
08:15
Clear
27°F / -3°C 18°F / -8°C 69% 30.33 in
(1027 mb)
SSE 4.6 mph
(SSE 7 kph)
- 10SM
07:55
Clear
25°F / -4°C 18°F / -8°C 74% 30.3 in
(1026 mb)
Calm - 10SM
07:35
Clear
23°F / -5°C 16°F / -9°C 74% 30.3 in
(1026 mb)
Calm - 10SM
07:15
Clear
21°F / -6°C 19°F / -7°C 93% 30.3 in
(1026 mb)
Calm - 10SM
06:55
Clear
18°F / -8°C 16°F / -9°C 93% 30.3 in
(1026 mb)
Calm - 10SM
06:35
Clear
16°F / -9°C 14°F / -10°C 93% 30.3 in
(1026 mb)
Calm - 10SM
06:15
Clear
14°F / -10°C 12°F / -11°C 92% 30.3 in
(1026 mb)
Calm - 10SM
05:55
Clear
14°F / -10°C 12°F / -11°C 92% 30.27 in
(1025 mb)
Calm - 10SM
05:35
Clear
12°F / -11°C 12°F / -11°C 100% 30.27 in
(1025 mb)
Calm - 10SM
05:15
Clear
12°F / -11°C 10°F / -12°C 92% 30.27 in
(1025 mb)
Calm - 10SM
04:55
Clear
14°F / -10°C 12°F / -11°C 92% 30.27 in
(1025 mb)
Calm - 10SM
04:35
Clear
12°F / -11°C 10°F / -12°C 92% 30.24 in
(1024 mb)
Calm - 10SM
04:15
Clear
12°F / -11°C 10°F / -12°C 92% 30.24 in
(1024 mb)
Calm - 10SM
03:55
Clear
14°F / -10°C 12°F / -11°C 92% 30.24 in
(1024 mb)
Calm - 10SM
03:35
Clear
14°F / -10°C 12°F / -11°C 92% 30.24 in
(1024 mb)
Calm - 10SM
03:15
Clear
14°F / -10°C 12°F / -11°C 92% 30.24 in
(1024 mb)
Calm - 10SM
02:55
Clear
14°F / -10°C 12°F / -11°C 92% 30.24 in
(1024 mb)
Calm - 10SM
02:35
Clear
14°F / -10°C 10°F / -12°C 85% 30.24 in
(1024 mb)
Calm - 10SM
02:15
Clear
16°F / -9°C 12°F / -11°C 86% 30.24 in
(1024 mb)
Calm - 10SM
01:55
Clear
14°F / -10°C 12°F / -11°C 92% 30.24 in
(1024 mb)
Calm - 10SM
01:35
Clear
16°F / -9°C 12°F / -11°C 86% 30.24 in
(1024 mb)
Calm - 10SM
01:15
Clear
14°F / -10°C 12°F / -11°C 92% 30.24 in
(1024 mb)
Calm - 10SM
00:55
Clear
16°F / -9°C 12°F / -11°C 86% 30.24 in
(1024 mb)
Calm - 10SM
00:35
Clear
14°F / -10°C 12°F / -11°C 92% 30.21 in
(1023 mb)
Calm - 10SM
00:15
Clear
18°F / -8°C 14°F / -10°C 86% 30.21 in
(1023 mb)
Calm - 10SM
Time Weather Temperature Dewpoint Humidity Pressure Winds Precip Visibility


Weather for websites

WeatherForYou.com, LLC is not responsible for any damages or problems caused by this service. Current weather conditions are obtained from the closest station including government and personal stations which may have varying degrees of accuracy. Weather forecasts are derived from the NOAA NDFD. Like all things, this site belongs to Jesus Christ... He just trusts me to maintain it. If you have any questions or comments email webmaster@weatherforyou.com

Copyright © 2015, WeatherForYou.com LLC. All rights reserved.